| time (UTC) | temp C | wind direction | speed KPH | gust KPH | rain 1hr cm | rain 24hr cm | rain mn cm | humidity % | barometer mb |
| 20260506233823 | 16 | 0.0 | 0.0 | 0.00 | 0.00 | 0.00 | 65 | 1008.3 | |
| 20260506232823 | 16 | 0.0 | 0.0 | 0.00 | 0.00 | 0.00 | 64 | 1008.2 | |
| 20260506231823 | 16 | 0.0 | 0.0 | 0.00 | 0.00 | 0.00 | 64 | 1008.2 | |
| 20260506230824 | 16 | 0.0 | 0.0 | 0.00 | 0.00 | 0.00 | 63 | 1008.1 | |
| 20260506225823 | 16 | 0.0 | 0.0 | 0.00 | 0.00 | 0.00 | 63 | 1008.1 | |
| 20260506224823 | 16 | 0.0 | 0.0 | 0.00 | 0.00 | 0.00 | 63 | 1008.2 | |
| 20260506223824 | 16 | 0.0 | 0.0 | 0.00 | 0.00 | 0.00 | 63 | 1008.3 | |
| 20260506222823 | 16 | 0.0 | 0.0 | 0.00 | 0.00 | 0.00 | 62 | 1008.3 | |
| 20260506221823 | 16 | 0.0 | 0.0 | 0.00 | 0.00 | 0.00 | 61 | 1008.3 | |
| 20260506220823 | 17 | 0.0 | 0.0 | 0.00 | 0.00 | 0.00 | 60 | 1008.2 | |
| 20260506215823 | 16 | 0.0 | 0.0 | 0.00 | 0.00 | 0.00 | 60 | 1008.4 | |
| 20260506214823 | 16 | 0.0 | 0.0 | 0.00 | 0.00 | 0.00 | 59 | 1008.4 | |
| 20260506213823 | 17 | 0.0 | 0.0 | 0.00 | 0.00 | 0.00 | 55 | 1008.4 | |
| 20260506212824 | 17 | 0.0 | 0.0 | 0.00 | 0.00 | 0.00 | 53 | 1008.2 | |
| 20260506211823 | 17 | 0.0 | 0.0 | 0.00 | 0.00 | 0.00 | 51 | 1008.2 | |
| 20260506210823 | 17 | 0.0 | 0.0 | 0.00 | 0.00 | 0.00 | 49 | 1008.1 | |
| 20260506205824 | 18 | 0.0 | 0.0 | 0.00 | 0.00 | 0.00 | 47 | 1007.9 | |
| 20260506204823 | 18 | 0.0 | 0.0 | 0.00 | 0.00 | 0.00 | 44 | 1007.9 | |
| 20260506203823 | 18 | 0.0 | 0.0 | 0.00 | 0.00 | 0.00 | 41 | 1007.8 | |
| 20260506202824 | 18 | 0.0 | 0.0 | 0.00 | 0.00 | 0.00 | 41 | 1007.7 | |
| 20260506201823 | 18 | 0.0 | 0.0 | 0.00 | 0.00 | 0.00 | 41 | 1007.7 | |
| 20260506200823 | 18 | 0.0 | 0.0 | 0.00 | 0.00 | 0.00 | 41 | 1007.5 | |
| 20260506195823 | 19 | 0.0 | 0.0 | 0.00 | 0.00 | 0.00 | 40 | 1007.4 | |
| 20260506194824 | 19 | 0.0 | 0.0 | 0.00 | 0.00 | 0.00 | 40 | 1007.4 | |
| 20260506193823 | 19 | 0.0 | 0.0 | 0.00 | 0.00 | 0.00 | 40 | 1007.2 | |
| 20260506192823 | 19 | 0.0 | 0.0 | 0.00 | 0.00 | 0.00 | 39 | 1007.2 | |
| 20260506191823 | 19 | 0.0 | 0.0 | 0.00 | 0.00 | 0.00 | 39 | 1007.3 | |
| 20260506190824 | 20 | 0.0 | 0.0 | 0.00 | 0.00 | 0.00 | 38 | 1007.0 | |
| 20260506185823 | 20 | 0.0 | 0.0 | 0.00 | 0.00 | 0.00 | 37 | 1007.0 | |
| 20260506184823 | 20 | 0.0 | 0.0 | 0.00 | 0.00 | 0.00 | 37 | 1006.9 | |
| 20260506183823 | 21 | 0.0 | 0.0 | 0.00 | 0.00 | 0.00 | 36 | 1006.7 | |
| 20260506182823 | 22 | 0.0 | 0.0 | 0.00 | 0.00 | 0.00 | 35 | 1006.5 | |
| 20260506181824 | 26 | 0.0 | 0.0 | 0.00 | 0.00 | 0.00 | 31 | 1005.7 | |
| 20260506180823 | 31 | 0.0 | 0.0 | 0.00 | 0.00 | 0.00 | 26 | 1004.3 | |
| 20260506175823 | 32 | 0.0 | 0.0 | 0.00 | 0.00 | 0.00 | 26 | 1004.3 | |
| 20260506174824 | 33 | 0.0 | 0.0 | 0.00 | 0.00 | 0.00 | 25 | 1004.1 | |
| 20260506173823 | 32 | 0.0 | 0.0 | 0.00 | 0.00 | 0.00 | 26 | 1004.5 | |
| 20260506172823 | 30 | 0.0 | 0.0 | 0.00 | 0.00 | 0.00 | 29 | 1005.0 | |
| 20260506171823 | 22 | 0.0 | 0.0 | 0.00 | 0.00 | 0.00 | 37 | 1006.8 | |
| 20260506170824 | 21 | 0.0 | 0.0 | 0.00 | 0.00 | 0.00 | 38 | 1007.1 | |
| 20260506165823 | 21 | 0.0 | 0.0 | 0.00 | 0.00 | 0.00 | 38 | 1007.2 | |
| 20260506164823 | 21 | 0.0 | 0.0 | 0.00 | 0.00 | 0.00 | 39 | 1007.2 | |
| 20260506163823 | 21 | 0.0 | 0.0 | 0.00 | 0.00 | 0.00 | 40 | 1007.4 | |
| 20260506162823 | 20 | 0.0 | 0.0 | 0.00 | 0.00 | 0.00 | 41 | 1007.7 | |
| 20260506161824 | 21 | 0.0 | 0.0 | 0.00 | 0.00 | 0.00 | 39 | 1007.5 | |
| 20260506160823 | 20 | 0.0 | 0.0 | 0.00 | 0.00 | 0.00 | 40 | 1007.6 | |
| 20260506155824 | 20 | 0.0 | 0.0 | 0.00 | 0.00 | 0.00 | 42 | 1007.9 | |
| 20260506154824 | 21 | 0.0 | 0.0 | 0.00 | 0.00 | 0.00 | 39 | 1007.7 | |
| 20260506153823 | 21 | 0.0 | 0.0 | 0.00 | 0.00 | 0.00 | 40 | 1007.9 | |
| 20260506152823 | 20 | 0.0 | 0.0 | 0.00 | 0.00 | 0.00 | 42 | 1008.0 | |
| 20260506151822 | 21 | 0.0 | 0.0 | 0.00 | 0.00 | 0.00 | 40 | 1008.1 | |
| 20260506150823 | 20 | 0.0 | 0.0 | 0.00 | 0.00 | 0.00 | 43 | 1008.4 | |
| 20260506145823 | 21 | 0.0 | 0.0 | 0.00 | 0.00 | 0.00 | 40 | 1008.0 | |
| 20260506144824 | 21 | 0.0 | 0.0 | 0.00 | 0.00 | 0.00 | 40 | 1008.2 | |
| 20260506143824 | 21 | 0.0 | 0.0 | 0.00 | 0.00 | 0.00 | 42 | 1008.6 | |
| 20260506142822 | 20 | 0.0 | 0.0 | 0.00 | 0.00 | 0.00 | 42 | 1008.9 | |
| 20260506141823 | 20 | 0.0 | 0.0 | 0.00 | 0.00 | 0.00 | 44 | 1009.1 | |
| 20260506140822 | 18 | 0.0 | 0.0 | 0.00 | 0.00 | 0.00 | 49 | 1009.8 | |
| 20260506135824 | 18 | 0.0 | 0.0 | 0.00 | 0.00 | 0.00 | 47 | 1009.6 | |
| 20260506134823 | 18 | 0.0 | 0.0 | 0.00 | 0.00 | 0.00 | 47 | 1009.8 | |
| 20260506133823 | 18 | 0.0 | 0.0 | 0.00 | 0.00 | 0.00 | 48 | 1009.8 | |
| 20260506132824 | 20 | 0.0 | 0.0 | 0.00 | 0.00 | 0.00 | 47 | 1009.7 | |
| 20260506131822 | 18 | 0.0 | 0.0 | 0.00 | 0.00 | 0.00 | 50 | 1009.9 | |
| 20260506130822 | 19 | 0.0 | 0.0 | 0.00 | 0.00 | 0.00 | 48 | 1009.9 | |
| 20260506125822 | 17 | 0.0 | 0.0 | 0.00 | 0.00 | 0.00 | 53 | 1010.3 | |
| 20260506124823 | 18 | 0.0 | 0.0 | 0.00 | 0.00 | 0.00 | 53 | 1010.4 | |
| 20260506123822 | 18 | 0.0 | 0.0 | 0.00 | 0.00 | 0.00 | 52 | 1010.3 | |
| 20260506122822 | 18 | 0.0 | 0.0 | 0.00 | 0.00 | 0.00 | 53 | 1010.5 | |
| 20260506121824 | 17 | 0.0 | 0.0 | 0.00 | 0.00 | 0.00 | 54 | 1010.7 | |
| 20260506120822 | 17 | 0.0 | 0.0 | 0.00 | 0.00 | 0.00 | 55 | 1010.9 | |
| 20260506115822 | 17 | 0.0 | 0.0 | 0.00 | 0.00 | 0.00 | 56 | 1010.9 | |
| 20260506114910 | 17 | 0.0 | 0.0 | 0.00 | 0.00 | 0.00 | 57 | 1011.1 | |
| 20260506113823 | 16 | 0.0 | 0.0 | 0.00 | 0.00 | 0.00 | 60 | 1011.4 | |
| 20260506112822 | 16 | 0.0 | 0.0 | 0.00 | 0.00 | 0.00 | 65 | 1011.6 | |
| 20260506111822 | 16 | 0.0 | 0.0 | 0.00 | 0.00 | 0.00 | 71 | 1011.7 | |
| 20260506110824 | 15 | 0.0 | 0.0 | 0.00 | 0.00 | 0.00 | 78 | 1012.2 | |
| 20260506105824 | 14 | 0.0 | 0.0 | 0.00 | 0.00 | 0.00 | 82 | 1012.4 | |
| 20260506104822 | 13 | 0.0 | 0.0 | 0.00 | 0.00 | 0.00 | 83 | 1012.5 | |
| 20260506103822 | 13 | 0.0 | 0.0 | 0.00 | 0.00 | 0.00 | 84 | 1012.5 | |
| 20260506102823 | 13 | 0.0 | 0.0 | 0.00 | 0.00 | 0.00 | 85 | 1012.6 | |
| 20260506101824 | 13 | 0.0 | 0.0 | 0.00 | 0.00 | 0.00 | 83 | 1012.7 | |
| 20260506100822 | 13 | 0.0 | 0.0 | 0.00 | 0.00 | 0.00 | 83 | 1012.6 | |
| 20260506095822 | 13 | 0.0 | 0.0 | 0.00 | 0.00 | 0.00 | 10 | 1012.8 | |
| 20260506094824 | 13 | 0.0 | 0.0 | 0.00 | 0.00 | 0.00 | 10 | 1012.8 | |
| 20260506093822 | 13 | 0.0 | 0.0 | 0.00 | 0.00 | 0.00 | 10 | 1012.7 | |
| 20260506092823 | 12 | 0.0 | 0.0 | 0.00 | 0.00 | 0.00 | 10 | 1012.9 | |
| 20260506091823 | 11 | 0.0 | 0.0 | 0.00 | 0.00 | 0.00 | 10 | 1013.0 | |
| 20260506090823 | 12 | 0.0 | 0.0 | 0.00 | 0.00 | 0.00 | 10 | 1012.9 | |
| 20260506085824 | 11 | 0.0 | 0.0 | 0.00 | 0.00 | 0.00 | 10 | 1013.1 | |
| 20260506084823 | 11 | 0.0 | 0.0 | 0.00 | 0.00 | 0.00 | 10 | 1013.2 | |
| 20260506083824 | 11 | 0.0 | 0.0 | 0.00 | 0.00 | 0.00 | 10 | 1013.3 | |
| 20260506082824 | 11 | 0.0 | 0.0 | 0.00 | 0.00 | 0.00 | 10 | 1013.4 | |
| 20260506081826 | 11 | 0.0 | 0.0 | 0.00 | 0.00 | 0.00 | 10 | 1013.2 | |
| 20260506080822 | 11 | 0.0 | 0.0 | 0.00 | 0.00 | 0.00 | 10 | 1013.3 | |
| 20260506072824 | 10 | 0.0 | 0.0 | 0.00 | 0.00 | 0.00 | 10 | 1013.4 | |
| 20260506071822 | 10 | 0.0 | 0.0 | 0.00 | 0.00 | 0.00 | 10 | 1013.4 | |
| 20260506070822 | 10 | 0.0 | 0.0 | 0.00 | 0.00 | 0.00 | 10 | 1013.5 | |
| 20260506061824 | 10 | 0.0 | 0.0 | 0.00 | 0.00 | 0.00 | 10 | 1013.3 | |
| 20260506060822 | 10 | 0.0 | 0.0 | 0.00 | 0.00 | 0.00 | 10 | 1013.3 | |
| 20260506050824 | 10 | 0.0 | 0.0 | 0.00 | 0.00 | 0.00 | 10 | 1013.1 | |
| 20260506044822 | 10 | 0.0 | 0.0 | 0.00 | 0.00 | 0.00 | 10 | 1013.0 | |
| 20260506043822 | 10 | 0.0 | 0.0 | 0.00 | 0.00 | 0.00 | 10 | 1013.1 | |
| 20260506042824 | 9 | 0.0 | 0.0 | 0.00 | 0.00 | 0.00 | 10 | 1013.3 | |
| 20260506041822 | 9 | 0.0 | 0.0 | 0.00 | 0.00 | 0.00 | 10 | 1013.4 | |
| 20260506040824 | 10 | 0.0 | 0.0 | 0.00 | 0.00 | 0.00 | 10 | 1013.4 | |
| 20260506035822 | 10 | 0.0 | 0.0 | 0.00 | 0.00 | 0.00 | 10 | 1013.3 | |
| 20260506034824 | 10 | 0.0 | 0.0 | 0.00 | 0.00 | 0.00 | 10 | 1013.4 | |
| 20260506033822 | 10 | 0.0 | 0.0 | 0.00 | 0.00 | 0.00 | 10 | 1013.3 | |
| 20260506032822 | 10 | 0.0 | 0.0 | 0.00 | 0.00 | 0.00 | 10 | 1013.3 | |
| 20260506031822 | 10 | 0.0 | 0.0 | 0.00 | 0.00 | 0.00 | 10 | 1013.5 | |
| 20260506030822 | 10 | 0.0 | 0.0 | 0.00 | 0.00 | 0.00 | 10 | 1013.4 | |
| 20260506025826 | 10 | 0.0 | 0.0 | 0.00 | 0.00 | 0.00 | 10 | 1013.4 | |
| 20260506024824 | 10 | 0.0 | 0.0 | 0.00 | 0.00 | 0.00 | 10 | 1013.4 | |
| 20260506023824 | 10 | 0.0 | 0.0 | 0.00 | 0.00 | 0.00 | 10 | 1013.3 | |
| 20260506022822 | 10 | 0.0 | 0.0 | 0.00 | 0.00 | 0.00 | 10 | 1013.3 | |
| 20260506021822 | 10 | 0.0 | 0.0 | 0.00 | 0.00 | 0.00 | 10 | 1013.3 | |
| 20260506020824 | 10 | 0.0 | 0.0 | 0.00 | 0.00 | 0.00 | 10 | 1013.3 | |
| 20260506015822 | 10 | 0.0 | 0.0 | 0.00 | 0.00 | 0.00 | 10 | 1013.5 | |
| 20260506014824 | 10 | 0.0 | 0.0 | 0.00 | 0.00 | 0.00 | 10 | 1013.5 | |
| 20260506013822 | 10 | 0.0 | 0.0 | 0.00 | 0.00 | 0.00 | 10 | 1013.7 | |
| 20260506012824 | 10 | 0.0 | 0.0 | 0.00 | 0.00 | 0.00 | 10 | 1013.7 | |
| 20260506011824 | 10 | 0.0 | 0.0 | 0.00 | 0.00 | 0.00 | 10 | 1013.7 | |
| 20260506010824 | 10 | 0.0 | 0.0 | 0.00 | 0.00 | 0.00 | 10 | 1013.8 | |
| 20260506005822 | 10 | 0.0 | 0.0 | 0.00 | 0.00 | 0.00 | 10 | 1013.8 | |
| 20260506004832 | 10 | 0.0 | 0.0 | 0.00 | 0.00 | 0.00 | 10 | 1013.7 | |
| 20260506003822 | 10 | 0.0 | 0.0 | 0.00 | 0.00 | 0.00 | 10 | 1013.8 | |
| 20260506002822 | 11 | 0.0 | 0.0 | 0.00 | 0.00 | 0.00 | 10 | 1013.8 | |
| 20260506001824 | 11 | 0.0 | 0.0 | 0.00 | 0.00 | 0.00 | 10 | 1013.9 | |
| 20260506000822 | 11 | 0.0 | 0.0 | 0.00 | 0.00 | 0.00 | 10 | 1013.8 | |
| 20260505235824 | 11 | 0.0 | 0.0 | 0.00 | 0.00 | 0.00 | 10 | 1013.8 | |
| 20260505234822 | 11 | 0.0 | 0.0 | 0.00 | 0.00 | 0.00 | 10 | 1013.7 |